Time,TemperatureF,DewpointF,PressureIn,WindDirection,WindDirectionDegrees,WindSpeedMPH,WindSpeedGustMPH,Humidity,HourlyPrecipIn,Conditions,Clouds,dailyrainin,SoftwareType,DateUTC
2013-05-05 00:01:00,63.0,39.4,29.82,NNW,337,0.0,0.0,42,0.00,,,0.00,WUHU21623XXSP,2013-05-05 07:01:00,
2013-05-05 00:06:00,62.8,39.8,29.82,NNW,337,0.0,0.0,43,0.00,,,0.00,WUHU21623XXSP,2013-05-05 07:06:00,
2013-05-05 00:11:00,62.4,39.5,29.81,NNW,337,0.0,0.0,43,0.00,,,0.00,WUHU21623XXSP,2013-05-05 07:11:00,
2013-05-05 00:16:00,62.4,39.5,29.82,NNW,337,0.0,0.0,43,0.00,,,0.00,WUHU21623XXSP,2013-05-05 07:16:00,
2013-05-05 00:21:00,62.2,39.3,29.82,NNW,337,0.0,0.0,43,0.00,,,0.00,WUHU21623XXSP,2013-05-05 07:21:00,
2013-05-05 00:26:00,61.9,39.6,29.81,NNW,337,0.0,0.0,44,0.00,,,0.00,WUHU21623XXSP,2013-05-05 07:26:00,
2013-05-05 00:31:00,61.7,39.4,29.82,NNW,337,0.0,0.0,44,0.00,,,0.00,WUHU21623XXSP,2013-05-05 07:31:00,
2013-05-05 00:36:00,61.3,39.1,29.81,NNW,337,0.0,0.0,44,0.00,,,0.00,WUHU21623XXSP,2013-05-05 07:36:00,
2013-05-05 00:41:00,61.3,39.7,29.82,NNW,337,0.0,0.0,45,0.00,,,0.00,WUHU21623XXSP,2013-05-05 07:41:00,
2013-05-05 00:46:00,61.0,39.4,29.81,NNW,337,0.0,0.0,45,0.00,,,0.00,WUHU21623XXSP,2013-05-05 07:46:00,
2013-05-05 00:51:00,60.6,39.0,29.82,NNW,337,0.0,0.0,45,0.00,,,0.00,WUHU21623XXSP,2013-05-05 07:51:00,
2013-05-05 00:56:00,60.4,38.9,29.82,NNW,337,0.0,0.0,45,0.00,,,0.00,WUHU21623XXSP,2013-05-05 07:56:00,
2013-05-05 01:01:00,60.3,39.3,29.81,NNW,337,0.0,0.0,46,0.00,,,0.00,WUHU21623XXSP,2013-05-05 08:01:00,
2013-05-05 01:06:00,59.7,39.4,29.82,NNW,337,0.0,0.0,47,0.00,,,0.00,WUHU21623XXSP,2013-05-05 08:06:00,
2013-05-05 01:11:00,59.5,39.2,29.82,NNW,337,0.0,0.0,47,0.00,,,0.00,WUHU21623XXSP,2013-05-05 08:11:00,
2013-05-05 01:16:00,59.0,38.7,29.82,NNW,337,0.0,0.0,47,0.00,,,0.00,WUHU21623XXSP,2013-05-05 08:16:00,
2013-05-05 01:21:00,58.8,39.1,29.82,NNW,337,0.0,0.0,48,0.00,,,0.00,WUHU21623XXSP,2013-05-05 08:21:00,
2013-05-05 01:26:00,58.6,39.6,29.81,NNW,337,0.0,0.0,49,0.00,,,0.00,WUHU21623XXSP,2013-05-05 08:26:00,
2013-05-05 01:31:00,58.3,39.8,29.81,NNW,337,0.0,0.0,50,0.00,,,0.00,WUHU21623XXSP,2013-05-05 08:31:00,
2013-05-05 01:36:00,57.9,39.5,29.81,NNW,337,0.0,0.0,50,0.00,,,0.00,WUHU21623XXSP,2013-05-05 08:36:00,
2013-05-05 01:41:00,57.7,39.3,29.81,NNW,337,0.0,0.0,50,0.00,,,0.00,WUHU21623XXSP,2013-05-05 08:41:00,
2013-05-05 01:46:00,57.6,39.8,29.81,NNW,337,0.0,0.0,51,0.00,,,0.00,WUHU21623XXSP,2013-05-05 08:46:00,
2013-05-05 01:51:00,57.4,39.5,29.81,NNW,337,0.0,0.0,51,0.00,,,0.00,WUHU21623XXSP,2013-05-05 08:51:00,
2013-05-05 01:56:00,57.4,39.5,29.81,NNW,337,0.0,0.0,51,0.00,,,0.00,WUHU21623XXSP,2013-05-05 08:56:00,
2013-05-05 02:01:00,57.0,39.6,29.81,NNW,337,0.0,0.0,52,0.00,,,0.00,WUHU21623XXSP,2013-05-05 09:01:00,
2013-05-05 02:06:00,57.0,39.6,29.81,NNW,337,0.0,0.0,52,0.00,,,0.00,WUHU21623XXSP,2013-05-05 09:06:00,
2013-05-05 02:11:00,57.0,39.6,29.81,North,0,0.0,0.0,52,0.00,,,0.00,WUHU21623XXSP,2013-05-05 09:11:00,
2013-05-05 02:16:00,56.8,39.9,29.81,North,0,0.0,0.0,53,0.00,,,0.00,WUHU21623XXSP,2013-05-05 09:16:00,
2013-05-05 02:21:00,56.8,39.9,29.81,North,0,0.0,0.0,53,0.00,,,0.00,WUHU21623XXSP,2013-05-05 09:21:00,
2013-05-05 02:26:00,56.5,39.5,29.81,North,0,0.0,0.0,53,0.00,,,0.00,WUHU21623XXSP,2013-05-05 09:26:00,
2013-05-05 02:31:00,56.5,40.0,29.81,North,0,0.0,0.0,54,0.00,,,0.00,WUHU21623XXSP,2013-05-05 09:31:00,
2013-05-05 02:36:00,56.3,39.8,29.80,North,0,0.0,0.0,54,0.00,,,0.00,WUHU21623XXSP,2013-05-05 09:36:00,
2013-05-05 02:41:00,56.1,39.6,29.80,North,0,0.0,0.0,54,0.00,,,0.00,WUHU21623XXSP,2013-05-05 09:41:00,
2013-05-05 02:46:00,55.9,39.5,29.80,North,0,0.0,0.0,54,0.00,,,0.00,WUHU21623XXSP,2013-05-05 09:46:00,
2013-05-05 02:51:00,55.9,39.9,29.80,North,0,0.0,0.0,55,0.00,,,0.00,WUHU21623XXSP,2013-05-05 09:51:00,
2013-05-05 02:56:00,55.8,39.7,29.80,North,0,0.0,0.0,55,0.00,,,0.00,WUHU21623XXSP,2013-05-05 09:56:00,
2013-05-05 03:01:00,55.4,39.8,29.80,North,0,0.0,0.0,56,0.00,,,0.00,WUHU21623XXSP,2013-05-05 10:01:00,
2013-05-05 03:06:00,55.2,39.7,29.80,North,0,0.0,0.0,56,0.00,,,0.00,WUHU21623XXSP,2013-05-05 10:06:00,
2013-05-05 03:11:00,55.2,39.7,29.80,North,0,0.0,0.0,56,0.00,,,0.00,WUHU21623XXSP,2013-05-05 10:11:00,
2013-05-05 03:16:00,55.0,40.0,29.80,North,0,0.0,0.0,57,0.00,,,0.00,WUHU21623XXSP,2013-05-05 10:16:00,
2013-05-05 03:21:00,54.9,40.0,29.80,North,0,0.0,0.0,57,0.00,,,0.00,WUHU21623XXSP,2013-05-05 10:21:00,
2013-05-05 03:26:00,54.7,39.7,29.80,North,0,0.0,0.0,57,0.00,,,0.00,WUHU21623XXSP,2013-05-05 10:26:00,
2013-05-05 03:31:00,54.3,39.8,29.80,North,0,0.0,0.0,58,0.00,,,0.00,WUHU21623XXSP,2013-05-05 10:31:00,
2013-05-05 03:36:00,54.3,39.8,29.79,North,0,0.0,0.0,58,0.00,,,0.00,WUHU21623XXSP,2013-05-05 10:36:00,
2013-05-05 03:41:00,54.1,40.1,29.79,North,0,0.0,0.0,59,0.00,,,0.00,WUHU21623XXSP,2013-05-05 10:41:00,
2013-05-05 03:46:00,53.8,39.8,29.79,North,0,0.0,0.0,59,0.00,,,0.00,WUHU21623XXSP,2013-05-05 10:46:00,
2013-05-05 03:51:00,53.8,39.8,29.79,North,0,0.0,0.0,59,0.00,,,0.00,WUHU21623XXSP,2013-05-05 10:51:00,
2013-05-05 03:56:00,53.4,39.5,29.79,North,0,0.0,0.0,59,0.00,,,0.00,WUHU21623XXSP,2013-05-05 10:56:00,
2013-05-05 04:01:00,53.4,39.9,29.79,North,0,0.0,0.0,60,0.00,,,0.00,WUHU21623XXSP,2013-05-05 11:01:00,
2013-05-05 04:06:00,53.4,39.9,29.79,North,0,0.0,0.0,60,0.00,,,0.00,WUHU21623XXSP,2013-05-05 11:06:00,
2013-05-05 04:11:00,53.2,39.7,29.79,North,0,0.0,0.0,60,0.00,,,0.00,WUHU21623XXSP,2013-05-05 11:11:00,
2013-05-05 04:16:00,53.1,39.6,29.79,North,0,0.0,0.0,60,0.00,,,0.00,WUHU21623XXSP,2013-05-05 11:16:00,
2013-05-05 04:21:00,52.9,39.8,29.79,North,0,0.0,0.0,61,0.00,,,0.00,WUHU21623XXSP,2013-05-05 11:21:00,
2013-05-05 04:26:00,52.7,39.6,29.80,North,0,0.0,0.0,61,0.00,,,0.00,WUHU21623XXSP,2013-05-05 11:26:00,
2013-05-05 04:31:00,52.5,39.8,29.79,NNE,22,0.0,0.0,62,0.00,,,0.00,WUHU21623XXSP,2013-05-05 11:31:00,
2013-05-05 04:36:00,52.5,39.8,29.78,NNE,22,0.0,0.0,62,0.00,,,0.00,WUHU21623XXSP,2013-05-05 11:36:00,
2013-05-05 04:41:00,52.3,39.6,29.78,NNE,22,0.0,0.0,62,0.00,,,0.00,WUHU21623XXSP,2013-05-05 11:41:00,
2013-05-05 04:46:00,52.3,39.6,29.78,NNE,22,0.0,0.0,62,0.00,,,0.00,WUHU21623XXSP,2013-05-05 11:46:00,
2013-05-05 04:51:00,52.3,39.6,29.78,NNE,22,0.0,0.0,62,0.00,,,0.00,WUHU21623XXSP,2013-05-05 11:51:00,
2013-05-05 04:56:00,52.2,39.5,29.78,NNE,22,0.0,0.0,62,0.00,,,0.00,WUHU21623XXSP,2013-05-05 11:56:00,
2013-05-05 05:01:00,52.2,39.5,29.78,NNE,22,0.0,0.0,62,0.00,,,0.00,WUHU21623XXSP,2013-05-05 12:01:00,
2013-05-05 05:06:00,52.0,39.3,29.78,NNE,22,0.0,0.0,62,0.00,,,0.00,WUHU21623XXSP,2013-05-05 12:06:00,
2013-05-05 05:11:00,52.0,39.3,29.78,NNE,22,0.0,0.0,62,0.00,,,0.00,WUHU21623XXSP,2013-05-05 12:11:00,
2013-05-05 05:16:00,51.6,39.4,29.77,NNE,22,0.0,0.0,63,0.00,,,0.00,WUHU21623XXSP,2013-05-05 12:16:00,
2013-05-05 05:21:00,51.6,39.4,29.78,NNE,22,0.0,0.0,63,0.00,,,0.00,WUHU21623XXSP,2013-05-05 12:21:00,
2013-05-05 05:26:00,51.4,39.2,29.77,NNE,22,0.0,0.0,63,0.00,,,0.00,WUHU21623XXSP,2013-05-05 12:26:00,
2013-05-05 05:31:00,51.3,39.0,29.77,NNE,22,0.0,0.0,63,0.00,,,0.00,WUHU21623XXSP,2013-05-05 12:31:00,
2013-05-05 05:36:00,51.3,39.0,29.77,NNE,22,0.0,0.0,63,0.00,,,0.00,WUHU21623XXSP,2013-05-05 12:36:00,
2013-05-05 05:41:00,51.1,38.9,29.77,NNE,22,0.0,0.0,63,0.00,,,0.00,WUHU21623XXSP,2013-05-05 12:41:00,
2013-05-05 05:46:00,50.9,38.7,29.77,NNE,22,0.0,0.0,63,0.00,,,0.00,WUHU21623XXSP,2013-05-05 12:46:00,
2013-05-05 05:51:00,50.9,39.1,29.77,NNE,22,0.0,0.0,64,0.00,,,0.00,WUHU21623XXSP,2013-05-05 12:51:00,
2013-05-05 05:56:00,50.7,38.9,29.77,NNE,22,0.0,0.0,64,0.00,,,0.00,WUHU21623XXSP,2013-05-05 12:56:00,
2013-05-05 06:01:00,50.7,38.9,29.77,NNE,22,0.0,0.0,64,0.00,,,0.00,WUHU21623XXSP,2013-05-05 13:01:00,
2013-05-05 06:06:00,50.5,38.8,29.77,NNE,22,0.0,0.0,64,0.00,,,0.00,WUHU21623XXSP,2013-05-05 13:06:00,
2013-05-05 06:11:00,50.5,38.8,29.77,NNE,22,0.0,0.0,64,0.00,,,0.00,WUHU21623XXSP,2013-05-05 13:11:00,
2013-05-05 06:16:00,50.5,38.8,29.77,NNE,22,0.0,0.0,64,0.00,,,0.00,WUHU21623XXSP,2013-05-05 13:16:00,
2013-05-05 06:21:00,50.5,38.8,29.78,NNE,22,0.0,0.0,64,0.00,,,0.00,WUHU21623XXSP,2013-05-05 13:21:00,
2013-05-05 06:26:00,50.5,38.8,29.77,NNE,22,0.0,0.0,64,0.00,,,0.00,WUHU21623XXSP,2013-05-05 13:26:00,
2013-05-05 06:31:00,50.4,38.6,29.78,NNE,22,0.0,0.0,64,0.00,,,0.00,WUHU21623XXSP,2013-05-05 13:31:00,
2013-05-05 06:36:00,50.4,38.6,29.77,NNE,22,0.0,0.0,64,0.00,,,0.00,WUHU21623XXSP,2013-05-05 13:36:00,
2013-05-05 06:41:00,50.5,38.8,29.77,NNE,22,0.0,0.0,64,0.00,,,0.00,WUHU21623XXSP,2013-05-05 13:41:00,
2013-05-05 06:46:00,50.4,38.6,29.78,NNE,22,0.0,0.0,64,0.00,,,0.00,WUHU21623XXSP,2013-05-05 13:46:00,
2013-05-05 06:51:00,50.2,38.4,29.78,NNE,22,0.0,0.0,64,0.00,,,0.00,WUHU21623XXSP,2013-05-05 13:51:00,
2013-05-05 06:56:00,50.0,38.3,29.78,NNE,22,0.0,0.0,64,0.00,,,0.00,WUHU21623XXSP,2013-05-05 13:56:00,
2013-05-05 07:01:00,50.2,38.4,29.77,NNE,22,0.0,0.0,64,0.00,,,0.00,WUHU21623XXSP,2013-05-05 14:01:00,
2013-05-05 07:06:00,50.2,38.4,29.77,NNE,22,0.0,0.0,64,0.00,,,0.00,WUHU21623XXSP,2013-05-05 14:06:00,
2013-05-05 07:11:00,50.2,38.4,29.77,NNE,22,0.0,0.0,64,0.00,,,0.00,WUHU21623XXSP,2013-05-05 14:11:00,
2013-05-05 07:16:00,50.2,38.6,29.77,NNE,22,0.0,0.0,64,0.00,,,0.00,WUHU21623XXSP,2013-05-05 14:16:00,
2013-05-05 07:21:00,50.4,38.6,29.77,NNE,22,0.0,0.0,64,0.00,,,0.00,WUHU21623XXSP,2013-05-05 14:21:00,
2013-05-05 07:26:00,50.5,38.8,29.78,NNE,22,0.0,0.0,64,0.00,,,0.00,WUHU21623XXSP,2013-05-05 14:26:00,
2013-05-05 07:32:00,50.5,38.8,29.78,NNE,22,0.0,0.0,64,0.00,,,0.00,WUHU21623XXSP,2013-05-05 14:32:00,
2013-05-05 07:37:00,50.5,38.8,29.78,NNE,22,0.0,0.0,64,0.00,,,0.00,WUHU21623XXSP,2013-05-05 14:37:00,
2013-05-05 07:42:00,50.4,38.6,29.78,NNE,22,0.0,0.0,64,0.00,,,0.00,WUHU21623XXSP,2013-05-05 14:42:00,
2013-05-05 07:47:00,50.5,38.8,29.78,NNE,22,0.0,0.0,64,0.00,,,0.00,WUHU21623XXSP,2013-05-05 14:47:00,
2013-05-05 07:52:00,50.7,38.5,29.78,NNE,22,0.0,0.0,63,0.00,,,0.00,WUHU21623XXSP,2013-05-05 14:52:00,
2013-05-05 07:57:00,51.1,38.9,29.78,NNE,22,0.0,0.0,63,0.00,,,0.00,WUHU21623XXSP,2013-05-05 14:57:00,
2013-05-05 08:02:00,51.4,39.0,29.78,NNE,22,0.0,0.0,63,0.00,,,0.00,WUHU21623XXSP,2013-05-05 15:02:00,
2013-05-05 08:07:00,51.4,39.2,29.78,NNE,22,0.0,0.0,63,0.00,,,0.00,WUHU21623XXSP,2013-05-05 15:07:00,
2013-05-05 08:12:00,51.6,39.4,29.78,NNE,22,0.0,0.0,63,0.00,,,0.00,WUHU21623XXSP,2013-05-05 15:12:00,
2013-05-05 08:17:00,51.8,39.4,29.78,NNE,22,0.0,0.0,63,0.00,,,0.00,WUHU21623XXSP,2013-05-05 15:17:00,
2013-05-05 08:22:00,52.3,40.1,29.78,NNE,22,0.0,0.0,63,0.00,,,0.00,WUHU21623XXSP,2013-05-05 15:22:00,
2013-05-05 08:27:00,53.2,40.9,29.78,NNE,22,0.0,0.0,63,0.00,,,0.00,WUHU21623XXSP,2013-05-05 15:27:00,
2013-05-05 08:32:00,54.3,42.0,29.77,NNE,22,0.0,0.0,63,0.00,,,0.00,WUHU21623XXSP,2013-05-05 15:32:00,
2013-05-05 08:37:00,54.7,42.3,29.77,NNE,22,0.0,0.0,63,0.00,,,0.00,WUHU21623XXSP,2013-05-05 15:37:00,
2013-05-05 08:42:00,55.0,42.6,29.77,NNE,22,0.0,0.0,63,0.00,,,0.00,WUHU21623XXSP,2013-05-05 15:42:00,
2013-05-05 08:47:00,55.2,42.8,29.78,NNE,22,0.0,0.0,63,0.00,,,0.00,WUHU21623XXSP,2013-05-05 15:47:00,
2013-05-05 08:52:00,55.6,43.1,29.78,NNE,22,0.0,0.0,63,0.00,,,0.00,WUHU21623XXSP,2013-05-05 15:52:00,
2013-05-05 08:57:00,56.5,44.0,29.78,NNE,22,0.0,0.0,63,0.00,,,0.00,WUHU21623XXSP,2013-05-05 15:57:00,
2013-05-05 09:02:00,58.6,45.6,29.77,NNE,22,0.0,0.0,62,0.00,,,0.00,WUHU21623XXSP,2013-05-05 16:02:00,
2013-05-05 09:07:00,59.4,46.3,29.77,NNE,22,0.0,0.0,62,0.00,,,0.00,WUHU21623XXSP,2013-05-05 16:07:00,
2013-05-05 09:12:00,60.4,47.4,29.77,NNE,22,0.0,0.0,62,0.00,,,0.00,WUHU21623XXSP,2013-05-05 16:12:00,
2013-05-05 09:17:00,61.5,48.1,29.77,North,0,0.0,0.0,61,0.00,,,0.00,WUHU21623XXSP,2013-05-05 16:17:00,
2013-05-05 09:22:00,62.6,48.6,29.76,NNE,22,0.0,0.0,60,0.00,,,0.00,WUHU21623XXSP,2013-05-05 16:22:00,
2013-05-05 09:27:00,64.0,49.9,29.76,NNE,22,0.0,0.0,60,0.00,,,0.00,WUHU21623XXSP,2013-05-05 16:27:00,
2013-05-05 09:32:00,64.8,50.1,29.77,SW,225,0.0,0.0,59,0.00,,,0.00,WUHU21623XXSP,2013-05-05 16:32:00,
2013-05-05 09:37:00,66.0,50.8,29.77,SSE,157,0.0,0.0,58,0.00,,,0.00,WUHU21623XXSP,2013-05-05 16:37:00,
2013-05-05 09:42:00,67.8,52.0,29.76,SSE,157,0.0,0.0,57,0.00,,,0.00,WUHU21623XXSP,2013-05-05 16:42:00,
2013-05-05 09:47:00,71.4,53.8,29.76,SSE,157,0.0,0.0,54,0.00,,,0.00,WUHU21623XXSP,2013-05-05 16:47:00,
2013-05-05 09:52:00,77.2,56.6,29.75,SW,225,0.0,0.0,49,0.00,,,0.00,WUHU21623XXSP,2013-05-05 16:52:00,
2013-05-05 09:57:00,80.2,57.5,29.75,SW,225,0.0,0.0,46,0.00,,,0.00,WUHU21623XXSP,2013-05-05 16:57:00,
2013-05-05 10:02:00,82.2,57.8,29.75,ESE,112,0.0,0.0,43,0.00,,,0.00,WUHU21623XXSP,2013-05-05 17:02:00,
2013-05-05 10:07:00,84.6,56.9,29.75,South,180,0.0,0.0,39,0.00,,,0.00,WUHU21623XXSP,2013-05-05 17:07:00,
2013-05-05 10:12:00,86.0,57.4,29.75,SSE,157,0.0,0.0,38,0.00,,,0.00,WUHU21623XXSP,2013-05-05 17:12:00,
2013-05-05 10:17:00,87.3,56.9,29.75,SW,225,0.0,0.0,36,0.00,,,0.00,WUHU21623XXSP,2013-05-05 17:17:00,
2013-05-05 10:22:00,88.2,56.9,29.75,South,180,0.0,0.0,35,0.00,,,0.00,WUHU21623XXSP,2013-05-05 17:22:00,
2013-05-05 10:27:00,88.0,56.7,29.74,SSE,157,1.6,1.6,35,0.00,,,0.00,WUHU21623XXSP,2013-05-05 17:27:00,
2013-05-05 10:32:00,87.4,55.5,29.74,South,180,4.3,4.3,34,0.00,,,0.00,WUHU21623XXSP,2013-05-05 17:32:00,
2013-05-05 10:37:00,85.6,53.9,29.74,South,180,0.0,4.9,34,0.00,,,0.00,WUHU21623XXSP,2013-05-05 17:37:00,
2013-05-05 10:42:00,84.4,52.8,29.74,South,180,0.0,4.9,34,0.00,,,0.00,WUHU21623XXSP,2013-05-05 17:42:00,
2013-05-05 10:47:00,83.1,51.7,29.74,South,180,0.9,1.6,34,0.00,,,0.00,WUHU21623XXSP,2013-05-05 17:47:00,
2013-05-05 10:52:00,82.0,51.5,29.74,SSW,202,0.0,1.6,35,0.00,,,0.00,WUHU21623XXSP,2013-05-05 17:52:00,
2013-05-05 10:57:00,81.7,52.0,29.74,South,180,0.0,0.7,36,0.00,,,0.00,WUHU21623XXSP,2013-05-05 17:57:00,
2013-05-05 11:02:00,81.5,51.8,29.74,SSW,202,0.0,2.7,36,0.00,,,0.00,WUHU21623XXSP,2013-05-05 18:02:00,
2013-05-05 11:07:00,81.3,50.9,29.74,SSE,157,0.0,2.7,35,0.00,,,0.00,WUHU21623XXSP,2013-05-05 18:07:00,
2013-05-05 11:12:00,81.7,51.2,29.73,ESE,112,0.0,0.0,35,0.00,,,0.00,WUHU21623XXSP,2013-05-05 18:12:00,
2013-05-05 11:17:00,81.9,52.1,29.73,SW,225,0.0,0.0,36,0.00,,,0.00,WUHU21623XXSP,2013-05-05 18:17:00,
2013-05-05 11:22:00,82.2,52.4,29.73,South,180,5.1,5.1,36,0.00,,,0.00,WUHU21623XXSP,2013-05-05 18:22:00,
2013-05-05 11:27:00,82.8,52.1,29.72,SSE,157,2.5,5.1,35,0.00,,,0.00,WUHU21623XXSP,2013-05-05 18:27:00,
2013-05-05 11:32:00,82.9,52.3,29.73,South,180,0.0,3.2,35,0.00,,,0.00,WUHU21623XXSP,2013-05-05 18:32:00,
2013-05-05 11:37:00,83.5,51.2,29.72,SW,225,0.0,0.0,33,0.00,,,0.00,WUHU21623XXSP,2013-05-05 18:37:00,
2013-05-05 11:42:00,83.7,51.4,29.72,SW,225,0.0,0.0,33,0.00,,,0.00,WUHU21623XXSP,2013-05-05 18:42:00,
2013-05-05 11:47:00,84.0,51.7,29.72,SSW,202,0.0,0.0,33,0.00,,,0.00,WUHU21623XXSP,2013-05-05 18:47:00,
2013-05-05 11:52:00,84.6,51.4,29.72,NE,45,2.9,2.9,32,0.00,,,0.00,WUHU21623XXSP,2013-05-05 18:52:00,
2013-05-05 11:57:00,84.6,51.4,29.71,SE,135,0.0,2.9,32,0.00,,,0.00,WUHU21623XXSP,2013-05-05 18:57:00,
2013-05-05 12:02:00,84.9,52.5,29.70,SSE,157,1.8,1.8,33,0.00,,,0.00,WUHU21623XXSP,2013-05-05 19:02:00,
2013-05-05 12:07:00,85.3,52.8,29.70,NE,45,0.0,1.8,33,0.00,,,0.00,WUHU21623XXSP,2013-05-05 19:07:00,
2013-05-05 12:12:00,85.6,52.3,29.70,WSW,247,3.1,3.1,32,0.00,,,0.00,WUHU21623XXSP,2013-05-05 19:12:00,
2013-05-05 12:17:00,86.2,51.2,29.70,ESE,112,0.0,3.1,30,0.00,,,0.00,WUHU21623XXSP,2013-05-05 19:17:00,
2013-05-05 12:22:00,86.7,53.2,29.69,WSW,247,0.0,2.7,30,0.00,,,0.00,WUHU21623XXSP,2013-05-05 19:22:00,
2013-05-05 12:27:00,86.5,50.4,29.69,ENE,67,0.0,2.7,29,0.00,,,0.00,WUHU21623XXSP,2013-05-05 19:27:00,
2013-05-05 12:32:00,86.5,51.5,29.69,WSW,247,0.0,2.7,30,0.00,,,0.00,WUHU21623XXSP,2013-05-05 19:32:00,
2013-05-05 12:37:00,87.3,51.0,29.69,NW,315,0.0,2.7,29,0.00,,,0.00,WUHU21623XXSP,2013-05-05 19:37:00,
2013-05-05 12:42:00,87.3,49.9,29.68,South,180,0.0,8.7,28,0.00,,,0.00,WUHU21623XXSP,2013-05-05 19:42:00,
2013-05-05 12:47:00,87.4,50.1,29.68,NE,45,0.0,8.7,28,0.00,,,0.00,WUHU21623XXSP,2013-05-05 19:47:00,
2013-05-05 12:52:00,87.6,50.2,29.68,SSE,157,0.0,5.3,28,0.00,,,0.00,WUHU21623XXSP,2013-05-05 19:52:00,
2013-05-05 12:57:00,88.0,49.5,29.68,North,0,0.0,5.3,27,0.00,,,0.00,WUHU21623XXSP,2013-05-05 19:57:00,
2013-05-05 13:02:00,88.0,50.5,29.68,ESE,112,0.0,3.1,28,0.00,,,0.00,WUHU21623XXSP,2013-05-05 20:02:00,
2013-05-05 13:07:00,88.0,50.5,29.67,SSE,157,1.1,3.1,28,0.00,,,0.00,WUHU21623XXSP,2013-05-05 20:07:00,
2013-05-05 13:12:00,88.5,51.0,29.67,West,270,0.0,2.1,28,0.00,,,0.00,WUHU21623XXSP,2013-05-05 20:12:00,
2013-05-05 13:17:00,88.5,49.9,29.67,WSW,247,0.0,2.1,27,0.00,,,0.00,WUHU21623XXSP,2013-05-05 20:17:00,
2013-05-05 13:22:00,88.9,51.3,29.67,SSE,157,0.0,2.0,28,0.00,,,0.00,WUHU21623XXSP,2013-05-05 20:22:00,
2013-05-05 13:27:00,89.2,50.6,29.67,East,90,0.0,1.1,27,0.00,,,0.00,WUHU21623XXSP,2013-05-05 20:27:00,
2013-05-05 13:32:00,89.4,49.7,29.67,East,90,0.0,3.1,26,0.00,,,0.00,WUHU21623XXSP,2013-05-05 20:32:00,
2013-05-05 13:37:00,89.1,49.4,29.66,WSW,247,0.0,3.1,26,0.00,,,0.00,WUHU21623XXSP,2013-05-05 20:37:00,
2013-05-05 13:42:00,89.2,49.5,29.66,ENE,67,0.0,0.0,26,0.00,,,0.00,WUHU21623XXSP,2013-05-05 20:42:00,
2013-05-05 13:47:00,89.2,49.5,29.66,NE,45,0.7,0.7,26,0.00,,,0.00,WUHU21623XXSP,2013-05-05 20:47:00,
2013-05-05 13:52:00,89.2,50.6,29.65,South,180,0.0,1.1,27,0.00,,,0.00,WUHU21623XXSP,2013-05-05 20:52:00,
2013-05-05 13:57:00,89.4,49.7,29.65,SSW,202,0.0,1.1,26,0.00,,,0.00,WUHU21623XXSP,2013-05-05 20:57:00,
2013-05-05 14:02:00,90.0,50.1,29.65,NE,45,0.0,0.0,26,0.00,,,0.00,WUHU21623XXSP,2013-05-05 21:02:00,
2013-05-05 14:08:00,90.0,50.1,29.64,ENE,67,0.0,0.0,26,0.00,,,0.00,WUHU21623XXSP,2013-05-05 21:08:00,
2013-05-05 14:13:00,90.0,49.0,29.65,NE,45,0.0,0.0,25,0.00,,,0.00,WUHU21623XXSP,2013-05-05 21:13:00,
2013-05-05 14:18:00,90.1,49.2,29.64,SE,135,0.0,3.6,25,0.00,,,0.00,WUHU21623XXSP,2013-05-05 21:18:00,
2013-05-05 14:23:00,90.3,50.4,29.64,SW,225,1.8,3.6,26,0.00,,,0.00,WUHU21623XXSP,2013-05-05 21:23:00,
2013-05-05 14:28:00,90.7,50.7,29.64,ESE,112,0.0,1.8,26,0.00,,,0.00,WUHU21623XXSP,2013-05-05 21:28:00,
2013-05-05 14:33:00,91.0,50.0,29.64,WSW,247,2.0,2.0,25,0.00,,,0.00,WUHU21623XXSP,2013-05-05 21:33:00,
2013-05-05 14:38:00,91.0,50.0,29.63,SW,225,0.0,2.0,25,0.00,,,0.00,WUHU21623XXSP,2013-05-05 21:38:00,
2013-05-05 14:43:00,91.0,50.0,29.64,ESE,112,0.9,1.6,25,0.00,,,0.00,WUHU21623XXSP,2013-05-05 21:43:00,
2013-05-05 14:48:00,90.7,49.7,29.63,ENE,67,0.0,0.9,25,0.00,,,0.00,WUHU21623XXSP,2013-05-05 21:48:00,
2013-05-05 14:53:00,90.3,49.5,29.63,WSW,247,4.0,4.0,24,0.00,,,0.00,WUHU21623XXSP,2013-05-05 21:53:00,
2013-05-05 14:58:00,90.1,48.1,29.63,ESE,112,0.0,4.0,24,0.00,,,0.00,WUHU21623XXSP,2013-05-05 21:58:00,
2013-05-05 15:03:00,90.1,48.1,29.63,SW,225,2.5,2.5,24,0.00,,,0.00,WUHU21623XXSP,2013-05-05 22:03:00,
2013-05-05 15:08:00,90.0,47.9,29.63,SSE,157,0.4,2.5,24,0.00,,,0.00,WUHU21623XXSP,2013-05-05 22:08:00,
2013-05-05 15:13:00,90.1,48.1,29.62,SSW,202,0.0,2.5,24,0.00,,,0.00,WUHU21623XXSP,2013-05-05 22:13:00,
2013-05-05 15:18:00,90.3,49.4,29.62,SSW,202,2.7,2.7,25,0.00,,,0.00,WUHU21623XXSP,2013-05-05 22:18:00,
2013-05-05 15:23:00,90.5,49.5,29.62,SW,225,0.0,2.7,25,0.00,,,0.00,WUHU21623XXSP,2013-05-05 22:23:00,
2013-05-05 15:28:00,90.5,49.5,29.61,SW,225,0.0,0.0,25,0.00,,,0.00,WUHU21623XXSP,2013-05-05 22:28:00,
2013-05-05 15:33:00,90.3,49.4,29.61,WSW,247,0.0,0.0,25,0.00,,,0.00,WUHU21623XXSP,2013-05-05 22:33:00,
2013-05-05 15:38:00,90.1,48.1,29.61,ENE,67,0.0,0.0,24,0.00,,,0.00,WUHU21623XXSP,2013-05-05 22:38:00,
2013-05-05 15:43:00,89.8,47.8,29.61,ENE,67,0.0,2.2,24,0.00,,,0.00,WUHU21623XXSP,2013-05-05 22:43:00,
2013-05-05 15:48:00,89.8,48.9,29.60,SW,225,0.0,4.9,25,0.00,,,0.00,WUHU21623XXSP,2013-05-05 22:48:00,
2013-05-05 15:53:00,90.0,49.0,29.60,West,270,0.0,4.9,25,0.00,,,0.00,WUHU21623XXSP,2013-05-05 22:53:00,
2013-05-05 15:58:00,90.1,49.2,29.60,WSW,247,0.7,4.7,25,0.00,,,0.00,WUHU21623XXSP,2013-05-05 22:58:00,
2013-05-05 16:03:00,90.3,49.4,29.59,West,270,2.0,2.0,25,0.00,,,0.00,WUHU21623XXSP,2013-05-05 23:03:00,
2013-05-05 16:08:00,90.1,49.2,29.59,WSW,247,6.3,6.3,25,0.00,,,0.00,WUHU21623XXSP,2013-05-05 23:08:00,
2013-05-05 16:13:00,90.1,49.2,29.59,WSW,247,0.0,6.3,25,0.00,,,0.00,WUHU21623XXSP,2013-05-05 23:13:00,
2013-05-05 16:18:00,90.1,50.3,29.59,WNW,292,0.0,0.0,26,0.00,,,0.00,WUHU21623XXSP,2013-05-05 23:18:00,
2013-05-05 16:23:00,90.1,51.4,29.59,SSW,202,0.0,0.0,27,0.00,,,0.00,WUHU21623XXSP,2013-05-05 23:23:00,
2013-05-05 16:28:00,90.1,50.3,29.59,SW,225,0.0,0.0,26,0.00,,,0.00,WUHU21623XXSP,2013-05-05 23:28:00,
2013-05-05 16:33:00,90.1,49.2,29.58,South,180,0.0,0.0,25,0.00,,,0.00,WUHU21623XXSP,2013-05-05 23:33:00,
2013-05-05 16:38:00,90.1,49.2,29.58,South,180,4.9,4.9,25,0.00,,,0.00,WUHU21623XXSP,2013-05-05 23:38:00,
2013-05-05 16:43:00,90.1,50.3,29.58,WSW,247,0.0,4.9,26,0.00,,,0.00,WUHU21623XXSP,2013-05-05 23:43:00,
2013-05-05 16:48:00,90.0,49.0,29.57,NNE,22,0.0,0.0,25,0.00,,,0.00,WUHU21623XXSP,2013-05-05 23:48:00,
2013-05-05 16:53:00,90.0,49.0,29.57,WNW,292,0.0,0.0,25,0.00,,,0.00,WUHU21623XXSP,2013-05-05 23:53:00,
2013-05-05 16:58:00,89.8,50.0,29.57,WNW,292,0.0,0.0,26,0.00,,,0.00,WUHU21623XXSP,2013-05-05 23:58:00,
2013-05-05 17:03:00,89.8,48.9,29.57,NNE,22,0.9,0.9,25,0.00,,,0.00,WUHU21623XXSP,2013-05-06 00:03:00,
2013-05-05 17:08:00,89.4,48.6,29.57,West,270,0.0,0.9,25,0.00,,,0.00,WUHU21623XXSP,2013-05-06 00:08:00,
2013-05-05 17:13:00,89.4,48.6,29.57,SSE,157,0.0,0.0,25,0.00,,,0.00,WUHU21623XXSP,2013-05-06 00:13:00,
2013-05-05 17:18:00,89.4,48.6,29.57,ESE,112,0.7,0.7,25,0.00,,,0.00,WUHU21623XXSP,2013-05-06 00:18:00,
2013-05-05 17:23:00,89.2,48.4,29.57,WSW,247,0.0,0.7,25,0.00,,,0.00,WUHU21623XXSP,2013-05-06 00:23:00,
2013-05-05 17:28:00,89.2,48.4,29.57,ENE,67,0.0,1.6,25,0.00,,,0.00,WUHU21623XXSP,2013-05-06 00:28:00,
2013-05-05 17:33:00,88.9,48.1,29.57,South,180,2.0,2.0,25,0.00,,,0.00,WUHU21623XXSP,2013-05-06 00:33:00,
2013-05-05 17:38:00,88.7,49.0,29.57,WSW,247,0.0,2.0,26,0.00,,,0.00,WUHU21623XXSP,2013-05-06 00:38:00,
2013-05-05 17:43:00,88.3,48.7,29.57,WSW,247,0.0,2.0,26,0.00,,,0.00,WUHU21623XXSP,2013-05-06 00:43:00,
2013-05-05 17:48:00,88.0,48.4,29.57,NW,315,0.0,0.0,26,0.00,,,0.00,WUHU21623XXSP,2013-05-06 00:48:00,
2013-05-05 17:53:00,88.0,48.4,29.57,NW,315,0.0,0.0,26,0.00,,,0.00,WUHU21623XXSP,2013-05-06 00:53:00,
2013-05-05 17:58:00,87.8,49.3,29.57,SW,225,0.0,0.0,27,0.00,,,0.00,WUHU21623XXSP,2013-05-06 00:58:00,
2013-05-05 18:03:00,87.6,49.2,29.57,ENE,67,0.0,0.0,27,0.00,,,0.00,WUHU21623XXSP,2013-05-06 01:03:00,
2013-05-05 18:08:00,87.4,49.0,29.57,WSW,247,0.0,0.0,27,0.00,,,0.00,WUHU21623XXSP,2013-05-06 01:08:00,
2013-05-05 18:13:00,87.1,48.7,29.57,North,0,0.0,0.0,27,0.00,,,0.00,WUHU21623XXSP,2013-05-06 01:13:00,
2013-05-05 18:18:00,86.4,48.1,29.58,ENE,67,0.0,0.0,27,0.00,,,0.00,WUHU21623XXSP,2013-05-06 01:18:00,
2013-05-05 18:23:00,85.8,46.6,29.57,WNW,292,0.0,0.0,26,0.00,,,0.00,WUHU21623XXSP,2013-05-06 01:23:00,
2013-05-05 18:28:00,85.6,47.5,29.57,SW,225,2.2,4.0,27,0.00,,,0.00,WUHU21623XXSP,2013-05-06 01:28:00,
2013-05-05 18:33:00,85.1,47.0,29.57,West,270,0.0,4.0,27,0.00,,,0.00,WUHU21623XXSP,2013-05-06 01:33:00,
2013-05-05 18:38:00,84.7,47.8,29.57,West,270,0.0,0.0,28,0.00,,,0.00,WUHU21623XXSP,2013-05-06 01:38:00,
2013-05-05 18:43:00,84.0,47.2,29.57,West,270,0.0,0.0,28,0.00,,,0.00,WUHU21623XXSP,2013-05-06 01:43:00,
2013-05-05 18:48:00,83.5,47.8,29.57,West,270,0.0,0.0,29,0.00,,,0.00,WUHU21623XXSP,2013-05-06 01:48:00,
2013-05-05 18:53:00,83.1,47.6,29.57,West,270,0.0,0.0,29,0.00,,,0.00,WUHU21623XXSP,2013-05-06 01:53:00,
2013-05-05 18:58:00,82.4,46.8,29.57,West,270,0.0,0.0,29,0.00,,,0.00,WUHU21623XXSP,2013-05-06 01:58:00,
2013-05-05 19:03:00,81.7,47.3,29.57,NW,315,0.0,0.0,30,0.00,,,0.00,WUHU21623XXSP,2013-05-06 02:03:00,
2013-05-05 19:08:00,81.3,47.0,29.57,NE,45,0.0,0.0,30,0.00,,,0.00,WUHU21623XXSP,2013-05-06 02:08:00,
2013-05-05 19:13:00,80.4,47.8,29.57,NE,45,0.0,0.0,32,0.00,,,0.00,WUHU21623XXSP,2013-05-06 02:13:00,
2013-05-05 19:18:00,79.9,47.6,29.58,NE,45,0.0,0.0,32,0.00,,,0.00,WUHU21623XXSP,2013-05-06 02:18:00,
2013-05-05 19:23:00,79.3,46.8,29.58,NE,45,0.0,0.0,32,0.00,,,0.00,WUHU21623XXSP,2013-05-06 02:23:00,
2013-05-05 19:28:00,78.6,46.9,29.58,NE,45,0.0,0.0,33,0.00,,,0.00,WUHU21623XXSP,2013-05-06 02:28:00,
2013-05-05 19:33:00,78.4,46.8,29.58,NE,45,0.0,0.0,33,0.00,,,0.00,WUHU21623XXSP,2013-05-06 02:33:00,
2013-05-05 19:38:00,77.9,46.3,29.58,NE,45,0.0,0.0,33,0.00,,,0.00,WUHU21623XXSP,2013-05-06 02:38:00,
2013-05-05 19:43:00,77.4,46.7,29.58,NE,45,0.0,0.0,34,0.00,,,0.00,WUHU21623XXSP,2013-05-06 02:43:00,
2013-05-05 19:48:00,77.0,45.6,29.58,NE,45,0.0,0.0,33,0.00,,,0.00,WUHU21623XXSP,2013-05-06 02:48:00,
2013-05-05 19:53:00,76.8,45.4,29.58,NE,45,0.0,0.0,34,0.00,,,0.00,WUHU21623XXSP,2013-05-06 02:53:00,
2013-05-05 19:58:00,76.5,45.9,29.58,NE,45,0.0,0.0,34,0.00,,,0.00,WUHU21623XXSP,2013-05-06 02:58:00,
2013-05-05 20:03:00,75.9,45.4,29.59,NE,45,0.0,0.0,34,0.00,,,0.00,WUHU21623XXSP,2013-05-06 03:03:00,
2013-05-05 20:08:00,75.7,45.2,29.59,NE,45,0.0,0.0,34,0.00,,,0.00,WUHU21623XXSP,2013-05-06 03:08:00,
2013-05-05 20:13:00,75.4,44.9,29.59,NNE,22,0.0,0.0,34,0.00,,,0.00,WUHU21623XXSP,2013-05-06 03:13:00,
2013-05-05 20:18:00,75.0,46.1,29.59,NNE,22,0.0,0.0,36,0.00,,,0.00,WUHU21623XXSP,2013-05-06 03:18:00,
2013-05-05 20:23:00,74.8,45.9,29.59,NNE,22,0.0,0.0,36,0.00,,,0.00,WUHU21623XXSP,2013-05-06 03:23:00,
2013-05-05 20:28:00,74.3,44.7,29.59,NE,45,0.0,0.0,35,0.00,,,0.00,WUHU21623XXSP,2013-05-06 03:28:00,
2013-05-05 20:33:00,73.9,44.4,29.59,NE,45,0.0,0.0,35,0.00,,,0.00,WUHU21623XXSP,2013-05-06 03:33:00,
2013-05-05 20:38:00,73.6,44.0,29.59,NE,45,0.0,0.0,35,0.00,,,0.00,WUHU21623XXSP,2013-05-06 03:38:00,
2013-05-05 20:43:00,73.2,44.5,29.59,NE,45,0.0,0.0,36,0.00,,,0.00,WUHU21623XXSP,2013-05-06 03:43:00,
2013-05-05 20:48:00,73.2,44.5,29.59,NNE,22,0.0,0.0,36,0.00,,,0.00,WUHU21623XXSP,2013-05-06 03:48:00,
2013-05-05 20:53:00,72.9,44.9,29.59,NNE,22,0.0,0.0,37,0.00,,,0.00,WUHU21623XXSP,2013-05-06 03:53:00,
2013-05-05 20:58:00,72.5,43.9,29.60,NNE,22,0.0,0.0,36,0.00,,,0.00,WUHU21623XXSP,2013-05-06 03:58:00,
2013-05-05 21:03:00,72.3,43.7,29.60,NNE,22,0.0,0.0,36,0.00,,,0.00,WUHU21623XXSP,2013-05-06 04:03:00,
2013-05-05 21:08:00,72.3,43.7,29.60,NNW,337,0.0,1.8,36,0.00,,,0.00,WUHU21623XXSP,2013-05-06 04:08:00,
2013-05-05 21:13:00,72.5,43.9,29.60,NNW,337,0.0,1.8,36,0.00,,,0.00,WUHU21623XXSP,2013-05-06 04:13:00,
2013-05-05 21:18:00,72.7,44.0,29.61,NNW,337,0.0,0.0,36,0.00,,,0.00,WUHU21623XXSP,2013-05-06 04:18:00,
2013-05-05 21:23:00,72.5,43.9,29.61,NE,45,0.0,3.1,36,0.00,,,0.00,WUHU21623XXSP,2013-05-06 04:23:00,
2013-05-05 21:28:00,72.5,43.9,29.61,NNE,22,0.0,3.1,36,0.00,,,0.00,WUHU21623XXSP,2013-05-06 04:28:00,
2013-05-05 21:33:00,72.3,43.7,29.61,NNW,337,0.0,0.0,36,0.00,,,0.00,WUHU21623XXSP,2013-05-06 04:33:00,
2013-05-05 21:38:00,72.3,43.7,29.61,NNE,22,0.0,0.0,36,0.00,,,0.00,WUHU21623XXSP,2013-05-06 04:38:00,
2013-05-05 21:43:00,71.8,44.9,29.62,NNE,22,0.0,0.0,38,0.00,,,0.00,WUHU21623XXSP,2013-05-06 04:43:00,
2013-05-05 21:48:00,71.2,44.2,29.62,NNE,22,0.0,0.0,38,0.00,,,0.00,WUHU21623XXSP,2013-05-06 04:48:00,
2013-05-05 21:53:00,71.1,44.1,29.62,NNE,22,0.0,0.0,38,0.00,,,0.00,WUHU21623XXSP,2013-05-06 04:53:00,
2013-05-05 21:58:00,70.5,43.6,29.63,NNE,22,0.0,0.0,38,0.00,,,0.00,WUHU21623XXSP,2013-05-06 04:58:00,
2013-05-05 22:03:00,70.2,44.0,29.63,NNE,22,0.0,0.0,39,0.00,,,0.00,WUHU21623XXSP,2013-05-06 05:03:00,
2013-05-05 22:08:00,70.0,43.8,29.64,NNE,22,0.0,0.0,39,0.00,,,0.00,WUHU21623XXSP,2013-05-06 05:08:00,
2013-05-05 22:14:00,69.6,43.5,29.63,NNE,22,0.0,0.0,39,0.00,,,0.00,WUHU21623XXSP,2013-05-06 05:14:00,
2013-05-05 22:19:00,69.4,44.1,29.64,NNE,22,0.0,0.0,40,0.00,,,0.00,WUHU21623XXSP,2013-05-06 05:19:00,
2013-05-05 22:24:00,68.9,43.6,29.64,NNE,22,0.0,0.0,40,0.00,,,0.00,WUHU21623XXSP,2013-05-06 05:24:00,
2013-05-05 22:29:00,68.7,43.4,29.64,NNE,22,0.0,0.0,40,0.00,,,0.00,WUHU21623XXSP,2013-05-06 05:29:00,
2013-05-05 22:34:00,68.5,43.9,29.64,NNE,22,0.0,0.0,41,0.00,,,0.00,WUHU21623XXSP,2013-05-06 05:34:00,
2013-05-05 22:39:00,68.4,43.7,29.64,NNE,22,0.0,0.0,41,0.00,,,0.00,WUHU21623XXSP,2013-05-06 05:39:00,
2013-05-05 22:44:00,68.2,43.6,29.64,NNE,22,0.0,0.0,41,0.00,,,0.00,WUHU21623XXSP,2013-05-06 05:44:00,
2013-05-05 22:49:00,67.8,43.8,29.64,NNE,22,0.0,0.0,42,0.00,,,0.00,WUHU21623XXSP,2013-05-06 05:49:00,
2013-05-05 22:54:00,67.3,43.3,29.65,NNE,22,0.0,0.0,42,0.00,,,0.00,WUHU21623XXSP,2013-05-06 05:54:00,
2013-05-05 22:59:00,66.9,43.0,29.65,NNE,22,0.0,0.0,42,0.00,,,0.00,WUHU21623XXSP,2013-05-06 05:59:00,
2013-05-05 23:04:00,66.7,43.4,29.65,NNE,22,0.0,0.0,43,0.00,,,0.00,WUHU21623XXSP,2013-05-06 06:04:00,
2013-05-05 23:09:00,66.4,43.1,29.66,NNE,22,0.0,0.0,43,0.00,,,0.00,WUHU21623XXSP,2013-05-06 06:09:00,
2013-05-05 23:14:00,66.0,43.4,29.65,NNE,22,0.0,0.0,44,0.00,,,0.00,WUHU21623XXSP,2013-05-06 06:14:00,
2013-05-05 23:19:00,65.8,43.2,29.65,NNE,22,0.0,0.0,44,0.00,,,0.00,WUHU21623XXSP,2013-05-06 06:19:00,
2013-05-05 23:24:00,65.5,43.5,29.65,NNE,22,0.0,0.0,45,0.00,,,0.00,WUHU21623XXSP,2013-05-06 06:24:00,
2013-05-05 23:29:00,65.1,43.1,29.65,NNE,22,0.0,0.0,45,0.00,,,0.00,WUHU21623XXSP,2013-05-06 06:29:00,
2013-05-05 23:34:00,64.9,42.9,29.65,NNE,22,0.0,0.0,45,0.00,,,0.00,WUHU21623XXSP,2013-05-06 06:34:00,
2013-05-05 23:39:00,64.8,43.4,29.66,NNE,22,0.0,0.0,46,0.00,,,0.00,WUHU21623XXSP,2013-05-06 06:39:00,
2013-05-05 23:44:00,64.6,43.8,29.66,NE,45,0.0,0.0,47,0.00,,,0.00,WUHU21623XXSP,2013-05-06 06:44:00,
2013-05-05 23:49:00,64.2,44.0,29.66,NE,45,0.0,0.0,48,0.00,,,0.00,WUHU21623XXSP,2013-05-06 06:49:00,
2013-05-05 23:54:00,63.7,43.1,29.66,NE,45,0.0,0.0,47,0.00,,,0.00,WUHU21623XXSP,2013-05-06 06:54:00,
2013-05-05 23:59:00,63.5,43.4,29.67,NNE,22,0.0,0.0,48,0.00,,,0.00,WUHU21623XXSP,2013-05-06 06:59:00,